When you browse on this site, cookies collect data to enhance your experience and personalize the content and advertising you see.
Visit our Privacy Policy to learn more. By continuing to use the site, you agree to this use of cookies and data.
  • In Hungary
  • List of Countries
  • For 7 days
  • Water Temperature
  • Satellite Maps
  • Weather Map
  • News
  • Weather Widgets
  • user-avatar
    Login

    Hourly Weather Keblo

    Today, 24 April, Wednesday

    Time Temperature Precipitation Wind Pressure Humidity
    00:00 +9°C° 0 mm 6 mps 747 mmHg 54%
    01:00 +9°C° 0 mm 5 mps 747 mmHg 57%
    02:00 +8°C° 0 mm 5 mps 746 mmHg 58%
    03:00 +8°C° 0 mm 5 mps 746 mmHg 59%
    04:00 +8°C° 0 mm 5 mps 746 mmHg 60%
    05:00 +9°C° 0 mm 6 mps 746 mmHg 61%
    06:00 +10°C° 0 mm 6 mps 747 mmHg 62%
    07:00 +11°C° 0 mm 7 mps 747 mmHg 62%
    08:00 +12°C° 0 mm 7 mps 747 mmHg 58%
    09:00 +15°C° 0 mm 7 mps 747 mmHg 55%
    10:00 +16°C° 0 mm 8 mps 747 mmHg 51%
    11:00 +17°C° 0 mm 8 mps 747 mmHg 50%
    12:00 +18°C° 0 mm 7 mps 747 mmHg 49%
    13:00 +20°C° 0 mm 7 mps 747 mmHg 48%
    14:00 +18°C° 0 mm 7 mps 746 mmHg 51%
    15:00 +19°C° 0 mm 6 mps 746 mmHg 54%
    16:00 +19°C° 0 mm 6 mps 746 mmHg 56%
    17:00 +17°C° 0 mm 5 mps 746 mmHg 60%
    18:00 +16°C° 0 mm 5 mps 746 mmHg 65%
    19:00 +15°C° 0 mm 5 mps 746 mmHg 69%
    20:00 +14°C° 0 mm 5 mps 746 mmHg 69%
    21:00 +14°C° 0 mm 6 mps 746 mmHg 69%
    22:00 +13°C° 0 mm 6 mps 746 mmHg 70%
    23:00 +13°C° 0 mm 6 mps 746 mmHg 71%

    Tomorrow, 25 April, Thursday

    Time Temperature Precipitation Wind Pressure Humidity
    00:00 +12°C° 0 mm 5 mps 746 mmHg 73%
    01:00 +12°C° 0 mm 5 mps 746 mmHg 75%
    02:00 +10°C° 0 mm 5 mps 746 mmHg 76%
    03:00 +10°C° 0 mm 5 mps 745 mmHg 77%
    04:00 +10°C° 0 mm 5 mps 745 mmHg 79%
    05:00 +11°C° 0.1 mm 6 mps 745 mmHg 77%
    06:00 +14°C° 0.1 mm 7 mps 745 mmHg 75%
    07:00 +15°C° 0.1 mm 7 mps 745 mmHg 73%
    08:00 +16°C° 0.1 mm 7 mps 745 mmHg 70%
    09:00 +18°C° 0.1 mm 7 mps 745 mmHg 66%
    10:00 +20°C° 0.1 mm 8 mps 745 mmHg 63%
    11:00 +21°C° 0 mm 8 mps 745 mmHg 60%
    12:00 +22°C° 0 mm 8 mps 745 mmHg 56%
    13:00 +23°C° 0 mm 8 mps 745 mmHg 53%
    14:00 +23°C° 0.1 mm 7 mps 744 mmHg 53%
    15:00 +22°C° 0.1 mm 7 mps 744 mmHg 53%
    16:00 +22°C° 0.1 mm 6 mps 744 mmHg 53%
    17:00 +21°C° 0.1 mm 5 mps 744 mmHg 60%
    18:00 +19°C° 0.1 mm 4 mps 744 mmHg 67%
    19:00 +17°C° 0.1 mm 3 mps 744 mmHg 74%
    20:00 +17°C° 0 mm 3 mps 744 mmHg 78%
    21:00 +16°C° 0 mm 3 mps 744 mmHg 82%
    22:00 +14°C° 0 mm 3 mps 744 mmHg 86%
    23:00 +13°C° 0 mm 3 mps 744 mmHg 87%

    Day after tomorrow, 26 April, Friday

    Time Temperature Precipitation Wind Pressure Humidity
    00:00 +13°C° 0 mm 3 mps 744 mmHg 89%
    01:00 +13°C° 0 mm 3 mps 743 mmHg 90%
    02:00 +12°C° 0 mm 3 mps 743 mmHg 91%
    03:00 +12°C° 0 mm 3 mps 743 mmHg 91%
    04:00 +12°C° 0 mm 3 mps 743 mmHg 92%
    05:00 +14°C° 0 mm 4 mps 742 mmHg 87%
    06:00 +15°C° 0 mm 4 mps 742 mmHg 82%
    07:00 +17°C° 0 mm 5 mps 742 mmHg 76%
    08:00 +20°C° 0 mm 6 mps 742 mmHg 68%
    09:00 +21°C° 0 mm 6 mps 741 mmHg 60%
    10:00 +23°C° 0 mm 7 mps 741 mmHg 52%
    11:00 +24°C° 0 mm 7 mps 741 mmHg 50%
    12:00 +24°C° 0 mm 7 mps 741 mmHg 49%
    13:00 +26°C° 0 mm 7 mps 740 mmHg 47%
    14:00 +26°C° 0 mm 6 mps 740 mmHg 47%
    15:00 +26°C° 0 mm 5 mps 740 mmHg 48%
    16:00 +26°C° 0 mm 3 mps 739 mmHg 48%
    17:00 +24°C° 0 mm 3 mps 739 mmHg 52%
    18:00 +21°C° 0 mm 2 mps 739 mmHg 55%
    19:00 +20°C° 0 mm 2 mps 739 mmHg 59%
    20:00 +19°C° 0 mm 2 mps 739 mmHg 61%
    21:00 +18°C° 0 mm 2 mps 739 mmHg 63%
    22:00 +18°C° 0 mm 3 mps 739 mmHg 66%
    23:00 +17°C° 0 mm 3 mps 739 mmHg 69%

    27 April, Saturday

    Time Temperature Precipitation Wind Pressure Humidity
    00:00 +17°C° 0 mm 3 mps 739 mmHg 72%
    01:00 +16°C° 0 mm 3 mps 739 mmHg 75%
    02:00 +16°C° 0 mm 3 mps 739 mmHg 76%
    03:00 +14°C° 0 mm 3 mps 739 mmHg 77%
    04:00 +14°C° 0 mm 3 mps 739 mmHg 78%
    05:00 +16°C° 0 mm 3 mps 739 mmHg 73%
    06:00 +18°C° 0 mm 4 mps 739 mmHg 69%
    07:00 +19°C° 0 mm 4 mps 739 mmHg 64%
    08:00 +21°C° 0 mm 4 mps 739 mmHg 60%
    09:00 +22°C° 0 mm 5 mps 740 mmHg 56%
    10:00 +23°C° 0 mm 5 mps 740 mmHg 51%
    11:00 +25°C° 0.1 mm 5 mps 740 mmHg 51%
    12:00 +25°C° 0.1 mm 5 mps 739 mmHg 50%
    13:00 +25°C° 0.1 mm 5 mps 739 mmHg 49%
    14:00 +23°C° 1.2 mm 5 mps 739 mmHg 53%
    15:00 +22°C° 1.2 mm 4 mps 739 mmHg 56%
    16:00 +21°C° 1.2 mm 3 mps 739 mmHg 60%
    17:00 +20°C° 0.1 mm 3 mps 739 mmHg 64%
    18:00 +19°C° 0.1 mm 3 mps 740 mmHg 67%
    19:00 +17°C° 0.1 mm 3 mps 740 mmHg 71%
    20:00 +15°C° 0 mm 4 mps 741 mmHg 73%
    21:00 +14°C° 0 mm 4 mps 741 mmHg 75%
    22:00 +13°C° 0 mm 5 mps 741 mmHg 76%
    23:00 +13°C° 0 mm 5 mps 742 mmHg 76%

    28 April, Sunday

    Time Temperature Precipitation Wind Pressure Humidity
    00:00 +12°C° 0 mm 5 mps 742 mmHg 76%
    01:00 +10°C° 0 mm 5 mps 742 mmHg 75%
    02:00 +11°C° 0 mm 4 mps 742 mmHg 75%
    03:00 +10°C° 0 mm 4 mps 742 mmHg 75%
    04:00 +10°C° 0 mm 4 mps 743 mmHg 74%
    05:00 +10°C° 0.1 mm 4 mps 743 mmHg 75%
    06:00 +10°C° 0.1 mm 4 mps 743 mmHg 76%
    07:00 +10°C° 0.1 mm 4 mps 743 mmHg 77%
    08:00 +10°C° 0.4 mm 4 mps 743 mmHg 78%
    09:00 +10°C° 0.4 mm 4 mps 744 mmHg 79%
    10:00 +10°C° 0.4 mm 4 mps 744 mmHg 80%
    11:00 +10°C° 0.6 mm 4 mps 744 mmHg 81%
    12:00 +11°C° 0.6 mm 4 mps 744 mmHg 82%
    13:00 +11°C° 0.6 mm 4 mps 743 mmHg 82%
    14:00 +11°C° 0.1 mm 4 mps 743 mmHg 81%
    15:00 +12°C° 0.1 mm 4 mps 743 mmHg 80%
    16:00 +12°C° 0.1 mm 4 mps 743 mmHg 79%
    17:00 +12°C° 0 mm 4 mps 743 mmHg 81%
    18:00 +12°C° 0 mm 4 mps 743 mmHg 83%
    19:00 +11°C° 0 mm 4 mps 743 mmHg 85%
    20:00 +11°C° 0 mm 3 mps 743 mmHg 88%
    21:00 +10°C° 0 mm 3 mps 743 mmHg 90%
    22:00 +9°C° 0 mm 3 mps 743 mmHg 93%
    23:00 +9°C° 0 mm 3 mps 743 mmHg 94%

    29 April, Monday

    Time Temperature Precipitation Wind Pressure Humidity
    00:00 +9°C° 0 mm 3 mps 743 mmHg 96%
    01:00 +9°C° 0 mm 3 mps 743 mmHg 97%
    02:00 +10°C° 0.4 mm 2 mps 742 mmHg 98%
    03:00 +12°C° 0.4 mm 2 mps 742 mmHg 98%
    04:00 +12°C° 0.4 mm 2 mps 742 mmHg 98%
    05:00 +13°C° 0.7 mm 2 mps 743 mmHg 98%
    06:00 +13°C° 0.7 mm 2 mps 743 mmHg 97%
    07:00 +14°C° 0.7 mm 1 mps 743 mmHg 96%
    08:00 +15°C° 0.5 mm 2 mps 743 mmHg 92%
    09:00 +16°C° 0.5 mm 3 mps 743 mmHg 87%
    10:00 +17°C° 0.5 mm 4 mps 744 mmHg 82%
    11:00 +17°C° 1 mm 4 mps 743 mmHg 83%
    12:00 +15°C° 1 mm 5 mps 743 mmHg 84%
    13:00 +15°C° 1 mm 6 mps 743 mmHg 84%
    14:00 +15°C° 0.3 mm 6 mps 743 mmHg 85%
    15:00 +14°C° 0.3 mm 6 mps 743 mmHg 86%
    16:00 +14°C° 0.3 mm 6 mps 743 mmHg 87%
    17:00 +13°C° 0.1 mm 6 mps 743 mmHg 87%
    18:00 +13°C° 0.1 mm 6 mps 743 mmHg 88%
    19:00 +12°C° 0.1 mm 5 mps 743 mmHg 88%
    20:00 +12°C° 0 mm 5 mps 743 mmHg 89%
    21:00 +10°C° 0 mm 5 mps 744 mmHg 89%
    22:00 +10°C° 0 mm 5 mps 744 mmHg 90%
    23:00 +10°C° 0 mm 5 mps 744 mmHg 89%
    Show more